Regional Weather Roundup
Issued by NWS

Home | Current Version | Previous Version | Text Only | Print | Product List | Glossary On
Versions: 1 2 3 4 5 6 7 8 9 10 11 12 13 14 15 16 17 18 19 20 21 22 23 24 25 26 27 28 29 30 31 32 33 34 35 36 37 38 39 40 41 42 43 44 45 46 47 48 49 50
000
ASUS45 KABQ 210410
RWRNM
NEW MEXICO REGIONAL WEATHER ROUNDUP
NATIONAL WEATHER SERVICE ALBUQUERQUE NM
1000 PM MDT FRI APR 20 2018

NOTE: "FAIR" MEANS FEW OR NO CLOUDS BELOW 12,000 FEET AGL WITH NO
       SIGNIFICANT WEATHER OR OBSTRUCTIONS TO VISION.

      THIS PRODUCT IS RELEASED AS TWO VERSIONS.  ONE VERSION NEAR
      THE TOP OF THE HOUR CONTAINING PRELIMINARY DATA FROM ALBUQUERQUE
      AND OTHER STATIONS.  A FINAL VERSION WITH ADDITIONAL DATA IS
      ISSUED ABOUT 10 MINUTES AFTER THE HOUR.

NMZ501-503-504-510>518-210500-
NORTHWEST PLATEAU/NORTHCENTRAL MOUNTAINS

CITY           SKY/WX    TMP DP  RH WIND       PRES   REMARKS
FARMINGTON     FAIR      45  27  49 W13       30.06R
LOS ALAMOS     CLOUDY    41  20  43 SW6       30.06R
SANTA FE       CLOUDY    45  21  38 NW8       30.03R
TAOS           CLOUDY    41  20  43 W7        30.07R
ANGEL FIRE     FAIR      33  16  49 CALM      30.07R

$$
NMZ402-403-502-505>509-210500-
WESTCENTRAL MOUNTAINS/SOUTHWEST MOUNTAINS

CITY           SKY/WX    TMP DP  RH WIND       PRES   REMARKS
GALLUP         MOCLDY    34  33  96 S6        30.13R WCI  29
GRANTS         CLOUDY    39  28  63 N7        30.12R WCI  34
SILVER CITY    FAIR      48  17  29 W8        30.07R

$$
NMZ407-409-411-412-210500-
SOUTHERN DESERTS

CITY           SKY/WX    TMP DP  RH WIND       PRES   REMARKS
DEMING         FAIR      58  18  21 W16G22    30.04R
LAS CRUCES     FAIR      60  12  15 W20G25    29.99S
HOLLOMAN AFB   FAIR      59  13  16 W13       29.99R
ALAMOGORDO     FAIR      55   9  15 E5        29.98R
T OR C         FAIR      57  15  19 W8        29.99R

$$
NMZ519>523-210500-
CENTRAL VALLEYS/CENTRAL HIGHLANDS

CITY           SKY/WX    TMP DP  RH WIND       PRES   REMARKS
ALBUQUERQUE    MOCLDY    47  29  49 NW18      30.07R
DOUBLE EAGLE   MOCLDY    46  27  46 NW18      30.08
MORIARTY ARPT  FAIR      40  16  37 NW7       30.05R
CLINES CORNERS FAIR      40  16  37 NW14      30.04R WCI  32
BELEN          CLOUDY    49  30  47 NW23G30   30.06R
SOCORRO        FAIR      54  24  31 NW21G28   30.02R

$$
NMZ524>526-539-540-210500-
SOUTHCENTRAL MOUNTAINS

CITY           SKY/WX    TMP DP  RH WIND       PRES   REMARKS
RUIDOSO        FAIR      45   0  15 SW12      30.05R

$$
NMZ527>531-210500-
NORTHEAST HIGHLANDS/NORTHEAST PLAINS

CITY           SKY/WX    TMP DP  RH WIND       PRES   REMARKS
LAS VEGAS      FAIR      35  33  92 E9        30.03R WCI  28
RATON          FAIR      34  32  92 N9        30.03R WCI  27
CLAYTON        CLOUDY    39  39 100 NE14      30.03R WCI  31

$$
NMZ532>537-210500-
EASTCENTRAL PLAINS

CITY           SKY/WX    TMP DP  RH WIND       PRES   REMARKS
SANTA ROSA     FAIR      47  41  80 NE10      29.97R
TUCUMCARI      CLOUDY    48  45  89 N15       29.96R
CANNON AFB     FAIR      50  50 100 N14       29.93R
CLOVIS AIRPORT FAIR      50  49  96 N9        29.92R

$$
NMZ028-029-538-210500-
SOUTHEAST PLAINS

CITY           SKY/WX    TMP DP  RH WIND       PRES   REMARKS
ROSWELL        FAIR      57   0  10 W12       29.89R
ARTESIA        FAIR      61   3  10 W12       29.90R
CARLSBAD       FAIR      61   5  10 N8        29.89R
HOBBS          FAIR      59  52  77 SW10      29.93R


$$



USA.gov is the U.S. government's official web portal to all federal, state and local government web resources and services.